x

Buoy F01 - West Penobscot Bay (44033) Wave Buoy

10:04 - Wed 18th Jan 2017 All times are EST. -5 hours from GMT.

  • Sig Wave height 4.9ft
  • Peak Period 8s
  • Wind
    22mph, 27mph gusts
  • Sea Temp 39°f
  • Air Temp 32°f
  • Sea Pressure 1019.6mb
  • Buoy F01 - West Penobscot Bay
  • Buoy F01 - West Penobscot Bay

More Historic Weather Station data

Upgrade to MSW Pro to gain access to the past 30 days of data for over 8000 Wavebouys and Weather Stations around the globe.

Join Pro

Comparision Forecast

View Surf forecast
   
mer. 01/18 10:04 5ft 8s 22 27 mph 1019.6mb 39f 32f
9:04 4ft 6s 20 27 mph 1019.8mb 39f 33f
8:04 3.5ft 6s 20 27 mph 1020mb 39f 33f
7:04 3.5ft 5s 20 25 mph 1019.8mb 39f 32f
6:04 3ft 5s 22 27 mph 1019.7mb 39f 32f
5:04 2.5ft 5s 18 20 mph 1019.6mb 39f 33f
4:04 2.5ft 3s 18 20 mph 1020mb 40f 30f
3:04 2ft 5s 16 20 mph 1020.8mb 40f 30f
2:04 1.6ft 5s 18 20 mph 1021.6mb 40f 31f
1:04 1.6ft 5s 16 18 mph 1022mb 40f 30f
12:04 1.6ft 3s 18 20 mph 1022.7mb 40f 30f
mar. 01/17 11:04 1.3ft 3s 18 20 mph 1023.2mb 39f 30f
10:04 1.6ft 2s 13 18 mph 1023.9mb 39f 31f
9:04 1.3ft 2s 16 18 mph 1024mb 39f 33f
8:04 1.3ft 5s 13 16 mph 1024.1mb 39f 34f
7:04 1ft 5s 13 18 mph 1024.1mb 39f 34f
6:04 1ft 6s 13 16 mph 1024.1mb 39f 35f
5:04 1ft 3s 11 16 mph 1024.1mb 39f 36f
4:04 1.3ft 6s 13 16 mph 1023.3mb 40f 36f
3:04 1ft 6s 11 13 mph 1023.3mb 40f 36f
2:04 1ft 3s 13 16 mph 1023.3mb 40f 36f
1:04 1.3ft 5s 11 13 mph 1023.3mb 40f 35f
12:04 1.3ft 3s 13 16 mph 1023.5mb 39f 35f
11:04 2ft 6s 16 20 mph 1023.9mb 39f 35f
10:04 2ft 6s 18 22 mph 1024.4mb 39f 36f
9:04 1.6ft 6s 16 20 mph 1024.3mb 39f 37f
8:04 1.6ft 6s 11 13 mph 1023.7mb 39f 37f
7:04 1.6ft 6s 9 11 mph 1022.5mb 39f 35f
6:04 2ft 6s 9 11 mph 1021.7mb 39f 36f
5:04 2ft 6s 11
mph
1020.9mb 39f 35f
4:04 2ft 6s 9 11 mph 1020.6mb 39f 35f
3:04 1.6ft 6s 11
mph
1020.6mb 39f 36f
2:04 1.6ft 6s 9 11 mph 1020.1mb 39f 37f
1:04 2ft 8s 9 11 mph 1019.4mb 39f 36f
12:04 2ft 6s 9 11 mph 1019.3mb 39f 35f
lun. 01/16 11:04 2.5ft 6s 7 9 mph 1020.1mb 39f 34f
10:04 2.5ft 6s 13 16 mph 1020.1mb 39f 36f
9:04 2.5ft 6s 16 20 mph 1020.5mb 39f 38f
8:04 2ft 6s 18 20 mph 1020.7mb 39f 38f
7:04 2.5ft 8s 18 25 mph 1020.9mb 39f 38f
6:04 2.5ft 5s 18 20 mph 1020.9mb 40f 38f
5:04 2.5ft 5s 20 25 mph 1021mb 39f 38f
4:04 3.5ft 5s 25 29 mph 1020.9mb 40f 38f
3:04 2.5ft 4s 22 29 mph 1021.7mb 39f 37f
2:04 2.5ft 5s 22 29 mph 1022.4mb 39f 36f
1:04 2.5ft 4s 20 25 mph 1023.5mb 39f 35f
12:04 2.5ft 4s 22 27 mph 1025.1mb 39f 33f
11:04 2ft 3s 18 22 mph 1026mb 39f 33f
10:04 1ft 2s 16 22 mph 1027.4mb 39f 33f
9:04 0.7ft  -  11 13 mph 1028.6mb 39f 29f
8:04 0.7ft  -  7 11 mph 1029.5mb 39f 28f
7:04 0.3ft  -  4 11 mph 1029.5mb 39f 25f
6:04 0.3ft  -  4 9 mph 1030mb 38f 24f
5:04 0.7ft  -  4 7 mph 1030.2mb 39f 22f
4:04 0.3ft  -  2 4 mph 1030.3mb 39f 22f
3:04 0.3ft  -  4 7 mph 1030.2mb 39f 21f
2:04 0.7ft  -  7 9 mph 1030.1mb 39f 21f
1:04 1.3ft 3s 13 16 mph 1029.7mb 39f 21f
12:04 1.3ft 3s 13 18 mph 1029.3mb 39f 22f
dim. 01/15 11:04 2ft 4s 18 22 mph 1028.9mb 39f 22f
10:04 1.6ft 3s 18 22 mph 1029.1mb 39f 23f
9:04 1.6ft 3s 18 22 mph 1028.9mb 39f 24f
8:04 1.3ft 3s 20 27 mph 1028.9mb 39f 24f
7:04 1.3ft 2s 16 20 mph 1028.9mb 39f 25f
6:04 1.3ft 2s 18 22 mph 1027.8mb 39f 27f
5:04 1ft 2s 16 20 mph 1026.6mb 39f 28f
4:04 1.3ft 2s 16 20 mph 1025.4mb 39f 29f
3:04 1.3ft 2s 16 22 mph 1024.3mb 39f 28f
2:04 1.3ft 2s 13 16 mph 1023.6mb 40f 28f
1:04 1.3ft 3s 16 18 mph 1023.3mb 40f 28f
12:04 1.3ft 3s 16 20 mph 1023.2mb 40f 28f
11:04 1.3ft 2s 18 22 mph 1023.3mb 39f 28f
10:04 1.6ft 5s 18 22 mph 1023.7mb 39f 28f
9:04 1.6ft 6s 16 20 mph 1023.6mb 39f 28f
8:04 1.6ft 6s 13 16 mph 1023mb 39f 27f
7:04 1.6ft 6s 16 18 mph 1022.2mb 39f 26f
6:04 1.6ft 6s 11 13 mph 1021.8mb 39f 25f
5:04 1.6ft 6s 13 16 mph 1021.6mb 39f 24f
4:04 2ft 6s 13 16 mph 1021.6mb 39f 24f
3:04 2ft 5s 13 16 mph 1021.5mb 40f 25f
2:04 1.6ft 5s 16 20 mph 1021.7mb 40f 27f
1:04 1.6ft 5s 16 18 mph 1022mb 40f 27f
12:04 1.3ft 5s 18 20 mph 1022.5mb 40f 27f
sam. 01/14 11:04 1ft 4s 11 13 mph 1023.7mb 40f 26f
10:04 1ft 3s 9 11 mph 1025.1mb 40f 26f
9:04 1ft 8s 7 9 mph 1026.1mb 40f 25f
8:04 0.7ft  -  9 11 mph 1027.2mb 40f 24f
7:04 1ft 8s 11 16 mph 1028.3mb 40f 23f
6:04 1ft 3s 11 13 mph 1029.2mb 40f 24f
5:04 1ft 3s 11 16 mph 1030.1mb 40f 24f